Regional Weather Roundup
Issued by NWS

Home | Current Version | Previous Version | Graphics & Text | Print | Product List | Glossary On
Versions: 1 2 3 4 5 6 7 8 9 10 11 12 13 14 15 16 17 18 19 20 21 22 23 24 25 26 27 28 29 30 31 32 33 34 35 36 37 38 39 40 41 42 43 44 45 46 47 48 49 50
000
ASUS45 KBOU 132110
RWRCO

WEATHER ROUNDUP FOR COLORADO
NATIONAL WEATHER SERVICE DENVER/BOULDER CO
300 PM MDT SUN JUL 13 2014

NOTE: "FAIR" INDICATES FEW OR NO CLOUDS BELOW 12000 FEET WITH NO
SIGNIFICANT WEATHER AND/OR OBSTRUCTIONS TO VISIBILITY.

COZ001>005-013-030-031-132200-
...NORTHWEST COLORADO...

CITY           SKY/WX    TMP DP  RH WIND       PRES   REMARKS
CRAIG          MOSUNNY   82  45  27 MISG      30.29F
HAYDEN         SUNNY     84  37  18 NE5       30.31F
MEEKER         MOSUNNY   87  43  21 NE8G17    30.29F
MOUNT WERNER   NOT AVBL
STEAMBOAT SPGS MOSUNNY   82  43  25 W7        30.34F
WALDEN         MOSUNNY   73  41  31 W8        30.45F
$$

COZ006>008-011-132200-
...WEST CENTRAL VALLEYS...

CITY           SKY/WX    TMP DP  RH WIND       PRES   REMARKS
GRAND JUNCTION MOSUNNY   94  46  19 E10       30.13F
MONTROSE       MOSUNNY   92  47  21 W13       30.22F
EAGLE          MOSUNNY   82  45  26 SE6       30.31F
RIFLE          MOSUNNY   93  42  17 VRB6      30.19F
DELTA          MOSUNNY   93  47  20 CALM      30.17F
NUCLA          MOSUNNY   91  45  19 NE16G28   30.27F
$$

COZ017>023-064>068-132200-
...SOUTHWEST COLORADO...

CITY           SKY/WX    TMP DP  RH WIND       PRES   REMARKS
DURANGO        MOSUNNY   86  45  23 MISG      30.29F
CORTEZ         MOSUNNY   91  47  21 S5        30.22F
PAGOSA SPRINGS MOSUNNY   83  41  22 W12G18    30.37F
TELLURIDE      NOT AVBL
WOLF CREEK PAS NOT AVBL
$$

COZ009-010-012-014-032>034-037-058>063-132200-
...CENTRAL COLORADO...

CITY           SKY/WX    TMP DP  RH WIND       PRES   REMARKS
ASPEN          MOSUNNY   80  43  26 N10       30.38F
BUENA VISTA    PTSUNNY   74  45  34 S7        30.40S
COPPER MTN     PTSUNNY   63  39  42 W22G28    30.75F
BERTHOUD PASS  FAIR      54  39  58 MISG      30.80F
COTTONWOOD PAS RAIN      68  52  56 CALM      30.58R
GUNNISON       MOSUNNY   79  46  31 W3        30.39F
KREMMLING      MOSUNNY   81  37  21 N5        30.37F
LEADVILLE      MOSUNNY   72  37  28 NW12      30.54F
MONARCH PASS   TSTM      52  43  71 SE12      30.84R
SALIDA         PTSUNNY  N/A N/A N/A NE9G18    30.47R
SUNLIGHT       PTSUNNY   64  46  52 NW3       30.68F
WILKERSON PASS TSTM      52  46  82 NE12      30.71S
$$

COZ069>075-132200-
...SAN LUIS VALLEY/SANGRE DE CRISTO MOUNTAINS...

CITY           SKY/WX    TMP DP  RH WIND       PRES   REMARKS
ALAMOSA        SUNNY     83  46  27 SE7       30.34F
LA VETA PASS   PTSUNNY   64  50  59 NE14G20   30.61F
SAGUACHE       NOT AVBL
$$

COZ035-036-038>040-132200-
...NORTHERN COLORADO FRONT RANGE...

CITY           SKY/WX    TMP DP  RH WIND       PRES   REMARKS
DENVER INTL AP PTSUNNY   84  52  33 VRB7      30.26F
DMNS CITY PARK   N/A     84  51  31 E6G12     30.25F
AURORA         MOSUNNY   81  53  38 E3        30.28F
FRONT RANGE AP PTSUNNY   84  52  32 SE12      30.28F
ERIE MUNI ARPT MOSUNNY   85  46  24 SE8G16    30.23F
BOULDER MUN AP MOSUNNY   84  50  30 E6        30.24F
CENTENNIAL     MOSUNNY   81  49  32 S5        30.28F
BROOMFIELD     PTSUNNY   84  48  28 NE8       30.28F
FORT COLLINS   SUNNY     84  54  34 SE6       30.21F
LONGMONT       SUNNY     89  52  28 E9        30.25F
$$

COZ041-046-047-076>085-087-088-132200-
...PIKES PEAK/PALMER DIVIDE AND SOUTHERN FOOTHILLS...

CITY           SKY/WX    TMP DP  RH WIND       PRES   REMARKS
COLO. SPRINGS  PTSUNNY   77  58  51 S10       30.34F
A. F. ACADEMY  PTSUNNY   75  56  52 S12       30.35S
ELLICOTT       NOT AVBL
FALCON         MOSUNNY   75  53  46 S6        30.39F
FORT CARSON    MOSUNNY   76  62  60 SE10      30.31F
LIMON          PTSUNNY   78  55  44 SE8       30.28F
MONUMENT HILL  PTSUNNY   77  50  38 SE12      30.38F
TRINIDAD       MOSUNNY   82  55  39 VRB7      30.29F
$$

COZ042>045-048>051-090-091-132200-
...NORTHEAST COLORADO...

CITY           SKY/WX    TMP DP  RH WIND       PRES   REMARKS
GREELEY ARPT   NOT AVBL
AKRON          CLOUDY    81  57  43 S12       30.23F
BURLINGTON     MOSUNNY   83  57  41 S8        30.21F
WRAY             N/A     88  55  32 CALM      30.18S
STERLING       MOSUNNY   86  59  39 S6        30.16F
HOLYOKE        PTSUNNY   79  64  61 SE9G20    30.20S
FORT MORGAN    MOSUNNY   87  51  28 SE6       30.21F
$$

COZ086-089-092>099-132200-
...SOUTHEAST COLORADO...

CITY           SKY/WX    TMP DP  RH WIND       PRES   REMARKS
PUEBLO         MOSUNNY   81  60  48 E12       30.24F
LA JUNTA       PTSUNNY   81  63  54 E8        30.22F
LAMAR          MOSUNNY   83  62  49 SE8       30.18F
SPRINGFIELD      N/A     85  59  41 NE12      30.22F
$$



USA.gov is the U.S. government's official web portal to all federal, state and local government web resources and services.